• Join FlightAware (Why Join?)
  • Login
  • US Flag 
03:08PM EDT


 

Airport Tracker/Info


-or-


 

Live Flight TrackerFlight Track Log ✈ SKW4664 ✈ 02-May-2013 ✈ KFSD - KMSP

Flight Track Log - Related Links

Times and Time Zones

All times are in EDT time to prevent confusion due to time zone crossing. See the SKW4664 flight status page for this flight to view local times or setup timezone preferences in your user account.

Time Position Orientation Groundspeed Altitude Reporting Facility
EDT Latitude Longitude Course Direction KTS MPH feet Rate Location/Type
12:07PM 43.6467 -96.7083 34° Northeast 190 219 4,400  Level Minneapolis Center
12:08PM 43.6922 -96.6436 46° Northeast 219 252 8,000 2,940 Climbing Minneapolis Center
12:09PM 43.7727 -96.3755 51° Northeast  Level FlightAware Approximate
12:09PM 43.7350 -96.5631 54° Northeast 239 275 10,500  Level Minneapolis Center
12:10PM 43.8416 -96.2544 53° Northeast  Level FlightAware Approximate
12:10PM 43.7842 -96.4706 54° Northeast 272 313 12,900  Level Minneapolis Center
12:11PM 43.9086 -96.1314 53° Northeast  Level FlightAware Approximate
12:11PM 43.8356 -96.3706 55° Northeast 310 357 15,100  Level Minneapolis Center
12:12PM 43.9766 -96.0091 52° Northeast  Level FlightAware Approximate
12:12PM 43.9022 -96.2450 54° Northeast 333 383 17,400  Level Minneapolis Center
12:13PM 43.9589 -96.1336 55° Northeast 353 406 18,300 960 Climbing Minneapolis Center
12:14PM 44.0206 -96.0144 54° Northeast 381 438 19,400 1,020 Climbing Minneapolis Center
12:15PM 44.0861 -95.8900 54° Northeast 403 464 20,500 1,080 Climbing Minneapolis Center
12:16PM 44.1394 -95.7478 62° Northeast 416 479 21,700 1,200 Climbing Minneapolis Center
12:17PM 44.2033 -95.5681 64° Northeast 431 496 23,000 600 Climbing Minneapolis Center
12:18PM 44.2592 -95.4094 64° Northeast 450 518 23,000  Level Minneapolis Center
12:19PM 44.3164 -95.2444 64° Northeast 469 540 23,000  Level Minneapolis Center
12:20PM 44.3764 -95.0783 63° Northeast 479 551 23,000  Level Minneapolis Center
12:21PM 44.4350 -94.9100 64° Northeast 482 555 23,000 -1,320 Level Minneapolis Center
12:22PM 44.4919 -94.7458 64° Northeast 475 547 20,300 -2,640 Descending Minneapolis Center
12:24PM 44.5522 -94.5689 64° Northeast 452 520 17,600 -2,640 Descending Minneapolis Center
12:25PM 44.6011 -94.4264 64° Northeast 406 467 14,900 -2,640 Descending Minneapolis Center
12:26PM 44.6453 -94.2972 64° Northeast 368 423 12,200 -1,920 Descending Minneapolis Center
12:27PM 44.6861 -94.1761 65° Northeast 344 396 11,000 -600 Descending Minneapolis Center
12:28PM 44.7175 -94.0472 71° East 348 400 11,000  Level Minneapolis Center
12:29PM 44.7528 -93.8894 72° East 351 404 11,000  Level Minneapolis Center
12:30PM 44.7819 -93.7583 73° East 351 404 11,000  Level Minneapolis Center
12:31PM 44.8114 -93.6281 72° East 351 404 11,000 -300 Level Minneapolis Center
12:32PM 44.8361 -93.5144 73° East 297 342 10,500 -1,260 Descending Minneapolis Center
12:33PM 44.8586 -93.4117 73° East 275 316 8,500 -1,260 Descending Minneapolis Center
12:34PM 44.8367 -93.3317 111° Southeast 256 295 7,900 -1,140 Descending Minneapolis Center
12:35PM 44.7692 -93.3167 171° South 253 291 6,200 -1,740 Descending Minneapolis Center
12:36PM 44.6892 -93.2936 168° South 255 293 4,400 -1,080 Descending Minneapolis Center
12:37PM 44.6814 -93.2139 98° East 223 257 4,100 -660 Descending Minneapolis Center
12:38PM 44.7236 -93.1903 22° Northeast 201 231 3,100 -1,020 Descending Minneapolis Center